Flag for Italy Weather past 2 weeks in Messina, Italy

Now
77 °F

Passing clouds.


Feels Like: 79 °F
Forecast: 74 / 83 °F
Wind: 5 mph from South

Location: Reggio Calabria

Current Time: Sep 17, 2014 at 10:01:00 PM

Latest Report: Sep 17, 2014 at 8:50 PM


Visibility: N/A

Pressure: 29.95 "Hg

Humidity: 69%

Dew point: 66 °F

Location of MessinaLocation

Historic Weather in Messina — Graph

°F

Messina temperature yesterday

Maximum temperature yesterday: 82 °F (at 12:50 PM)
Minimum temperature yesterday: 70 °F (at 5:50 AM)
Average temperature yesterday: 77 °F

Past Weeks' High & Low Weather Summary

 TemperatureHumidityPressure
High88 °F (Sep 11, 12:50 PM)88% (Sep 3, 9:50 AM)30.04 "Hg (Sep 3, 9:50 AM)
Low66 °F (Sep 15, 6:50 AM)33% (Sep 12, 3:50 PM)29.71 "Hg (Sep 2, 8:50 PM)
Average78 °F62%29.91 "Hg
* Reported Sep 2 8:50 PM — Sep 17 8:50 PM, Messina, Weather by CustomWeather, © 2014

Note: Actual official high and low records may vary slightly from our data, if they occured in-between our weather recording intervals... More about our weather records

Advertising

Messina weather history for previous 24 hours

 ConditionsComfort  
Time TempWeatherWind HumidityBarometerVisibility
8:50 PM
Sep 17
77 °FPassing clouds.5 mph69%29.95 "HgN/A
7:50 PM77 °FPassing clouds.8 mph69%29.95 "HgN/A
6:50 PM79 °FPassing clouds.10 mph65%29.92 "HgN/A
5:50 PM81 °FScattered clouds.12 mph66%29.92 "HgN/A
4:50 PM82 °FScattered clouds.10 mph62%29.92 "HgN/A
3:50 PM84 °FScattered clouds.12 mph55%29.92 "HgN/A
2:50 PM82 °FScattered clouds.12 mph62%29.92 "HgN/A
1:50 PM84 °FPassing clouds.10 mph51%29.95 "HgN/A
12:50 PM82 °FPassing clouds.10 mph55%29.95 "HgN/A
11:50 AM82 °FPassing clouds.10 mph58%29.95 "HgN/A
10:50 AM82 °FPassing clouds.7 mph58%29.95 "HgN/A
9:50 AM81 °FPassing clouds.8 mph62%29.95 "HgN/A
8:50 AM79 °FPassing clouds.3 mph65%29.92 "HgN/A
7:50 AM73 °FPassing clouds.5 mph74%29.92 "HgN/A
6:50 AM70 °FClear.7 mph78%29.92 "Hg10 mi
5:50 AM70 °FClear.6 mph78%29.89 "Hg10 mi
11:50 PM
Sep 16
73 °FThundershowers. Passing clouds.3 mph78%29.92 "HgN/A
10:50 PM75 °FThundershowers. Passing clouds.2 mph78%29.92 "HgN/A
Weather by CustomWeather, © 2014

See weather overviewHow to use our weather pages